Regional Weather Roundup
Issued by NWS Green Bay, WI

Home | Current Version | Previous Version | Graphics & Text | Print | Product List | Glossary Off
Versions: 1 2 3 4 5 6 7 8 9 10 11 12 13 14 15 16 17 18 19 20 21 22 23 24 25 26 27 28 29 30 31 32 33 34 35 36 37 38 39 40 41 42 43 44 45 46 47 48 49 50

000
ASUS43 KGRB 060059
RWRGRB

NORTH-CENTRAL AND NORTHEAST WISCONSIN REGIONAL WEATHER ROUNDUP
NATIONAL WEATHER SERVICE GREEN BAY WI
800 PM CDT TUE MAY 05 2015

WIZ005-009-010>012-018-019-060200-
NORTH CENTRAL WISCONSIN

CITY           SKY/WX    TMP DP  RH WIND       PRES   REMARKS
IRONWOOD       CLEAR     68  30  24 S9        30.14R
MANITOWISH WTR NOT AVBL
ARBOR VITAE    NOT AVBL
EAGLE RIVER    NOT AVBL
LAND O LAKES   NOT AVBL
RHINELANDER    PTCLDY    61  25  25 S8        30.23R
PHILLIPS       NOT AVBL
ANTIGO         NOT AVBL
TOMAHAWK       NOT AVBL
MERRILL        NOT AVBL
$$

WIZ013-073-060200-
NORTHEAST WISCONSIN

CITY           SKY/WX    TMP DP  RH WIND       PRES   REMARKS
IRON MOUNTAIN  PTCLDY    60  28  29 SE7       30.23S
MARINETTE      MOCLDY    55  30  38 CALM      30.24F
$$

WIZ017-030-035>037-045-060200-
CENTRAL WISCONSIN

CITY           SKY/WX    TMP DP  RH WIND       PRES   REMARKS
MEDFORD        NOT AVBL
WAUSAU         CLOUDY    61  16  17 SE10      30.21S
MOSINEE        CLEAR     59  23  25 E3        30.23S
MARSHFIELD     CLOUDY    60  35  39 SE8       30.21R
WISC RAPIDS    CLOUDY    61  34  36 SE9       30.22S
STEVENS POINT  NOT AVBL
WAUPACA        NOT AVBL
SHAWANO        NOT AVBL
CLINTONVILLE   NOT AVBL
$$

WIZ038-039-048-051-060200-
FOX VALLEY

CITY           SKY/WX    TMP DP  RH WIND       PRES   REMARKS
NWS GREEN BAY  CLOUDY    59  27  29 E3        30.24S
APPLETON       MOCLDY    57  36  44 SE7       30.24
OSHKOSH        CLOUDY    56  47  71 S5        30.23S
FOND DU LAC    CLOUDY    54  46  74 SE6       30.23S
$$

WIZ022-050-052-060200-
EAST CENTRAL WISCONSIN

CITY           SKY/WX    TMP DP  RH WIND       PRES   REMARKS
STURGEON BAY   MOCLDY    55  34  44 NW3       30.27S
MANITOWOC      NOT AVBL
SHEBOYGAN      CLOUDY    53  43  68 CALM      30.24S
$$

LMZ563-521-522-541>543-060200-
LAKESHORE

STATION/POSITION TIME  TEMP    WIND        PRES    VSBY  WAVE
                       AIR SEA DIR/SP/G                  HT/PER
                 (UTC) (F)     (DEG/KT/KT) (MB)    (MI)  (FT/S)
SHEBOYGAN LKSHOR 0000   44      60/  5/  5 1025.0F
KEWAUNEE LKSHORE 0000   49      40/  7/  8 1023.2F
TWO RIVERS CG    0000   52                 1023.9      6   0
NORTHPORT PIER   0000   49     320/  4/  5 1024.0F
SISTER BAY LKSHO 0000             CALM       N/A
CHAMBERS ISLAND  0000   50        CALM     1024.4F
MENOMINEE LKSHOR 0000   51     350/  3/  4 1024.8F
$$


USA.gov is the U.S. government's official web portal to all federal, state and local government web resources and services.